[Date Prev][Date Next][Thread Prev][Thread Next] - [Date Index][Thread Index][Author Index]
2 Line ISS keps 5-26
- Subject: [sarex] 2 Line ISS keps 5-26
- From: "Dr Dave Larsen [ PhD ]" <doc@xxxxxxxxxxx>
- Date: Sat, 26 May 2001 06:34:30 -0700
ISS
1 25544U 98067A 01146.49369213 .00034287 00000-0 40852-3 0 53
2 25544 51.5692 198.1565 0017818 87.6805 119.7418 15.60567098143684
----
Via the sarex mailing list at AMSAT.ORG courtesy of AMSAT-NA.
To unsubscribe, send "unsubscribe sarex" to Majordomo@amsat.org
AMSAT Home